Epoch 2003 Feb. 10.0 TT = JDT 2452680.5 T 2003 Feb. 1.25508 TT MPC q 1.9157137 (2000.0) P Q n 0.13907171 Peri. 357.08440 +0.59893561 -0.53790383 a 3.6895794 Node 55.19398 +0.74856136 +0.11289234 e 0.4807772 Incl. 46.26174 +0.28448556 +0.83541294 P 7.09
m1 = 6.5 + 5 logΔ + 30 log r(t - 75)